Location: *
(43.4667°N, 11.6833°E)
Time: 15:46:11
(UTC+00:00)

Cosmos 1570 Rocket - Pass Details

Date: 19 July 2019
Orbit: 763 x 788 km, 74.1° (Epoch: 22 August)

Event Time Altitude Azimuth Distance (km) Brightness Sun altitude
Rises 21:54:03 0° 343° (NNW) 3,239 8.7 -22.8°
Reaches altitude 10° 21:56:29 10° 348° (NNW) 2,310 7.6 -23.0°
Maximum altitude 22:01:37 54° 66° (ENE) 933 4.4 -23.3°
Enters shadow 22:02:39 46° 105° (ESE) 1,025 4.3 -23.4°
